Location: Foxtrotter Observatory
(29.3381°N, 82.2844°W)
Time: 06:16:40
(UTC-04:00)

ISS - Visible Passes

Search period start: 25 June 2018 00:00
Search period end: 05 July 2018 00:00
Orbit: 402 x 407 km, 51.6° (Epoch: 25 June)

Date Brightness Start Highest point End Pass type
(mag) Time Alt. Az. Time Alt. Az. Time Alt. Az.
28 Jun -1.6 05:25:23 10° S 05:27:46 19° SE 05:30:09 10° E visible
30 Jun -3.5 05:18:16 27° SSW 05:19:48 61° SE 05:23:02 10° NE visible
01 Jul -1.9 04:28:20 23° ESE 04:28:20 23° ESE 04:30:30 10° ENE visible
01 Jul -1.9 06:01:42 10° W 06:04:12 20° NW 06:06:41 10° N visible
02 Jul -3.0 05:10:59 31° W 05:11:55 39° NW 05:15:02 10° NNE visible
03 Jul -2.4 04:20:53 38° NE 04:20:53 38° NE 04:23:02 10° NE visible
04 Jul -1.6 05:03:22 15° NW 05:04:11 16° NW 05:06:17 10° N visible
